+ View the NASA Portal
+ Center for Near-Earth Object Studies
IMPORTANT:
The SSD Announcement email list is now available. Major changes are coming in the near future, including possible hostname and/or URL changes. To be notified of such changes, subscribe to this email list.
Please visit
this page
for more details.
Don't show this message again
JPL Small-Body Database Browser
Search:
[
help
]
277150 (2005 MB14)
Classification:
Main-belt Asteroid
SPK-ID:
2277150
[
Ephemeris
|
Orbit Diagram
|
Orbital Elements
|
Mission Design
|
Physical Parameters
|
Discovery Circumstances
|
Close-Approach Data
]
[ show orbit diagram ]
Orbital Elements at Epoch 2458600.5 (2019-Apr-27.0) TDB
Reference:
JPL 16
(heliocentric ecliptic J2000)
Element
Value
Uncertainty (1-sigma)
Units
e
.06133286296758535
6.0087e-08
a
2.470157591603111
2.0476e-08
au
q
2.318655754528977
1.5089e-07
au
i
7.348491102435652
5.1393e-06
deg
node
115.9284475855744
4.6319e-05
deg
peri
17.36515705585036
7.6626e-05
deg
M
317.8879982434364
5.9532e-05
deg
t
p
2458766.378005128576
(2019-Oct-09.87800513)
0.0002348
TDB
period
1418.029999891419
3.88
1.7631e-05
4.827e-08
d
yr
n
.2538733313311889
3.1566e-09
deg/d
Q
2.621659428677245
2.1731e-08
au
Orbit Determination Parameters
# obs. used (total)
256
data-arc span
5488 days (15.03 yr)
first obs. used
2003-12-27
last obs. used
2019-01-05
planetary ephem.
DE431
SB-pert. ephem.
SB431-N16
condition code
0
norm. resid. RMS
.67268
source
ORB
producer
Otto Matic
solution date
2019-Jul-14 03:59:40
Additional Information
Earth MOID
= 1.33476 au
Jupiter MOID
= 2.40143 au
T_jup
= 3.471
[ show covariance matrix ]
[
Ephemeris
|
Orbit Diagram
|
Orbital Elements
|
Mission Design
|
Physical Parameters
|
Discovery Circumstances
|
Close-Approach Data
]
Physical Parameter Table
Parameter
Symbol
Value
Units
Sigma
Reference
Notes
absolute magnitude
H
16.7
n/a
MPO455057
277150 (2005 MB14)
Discovered 2005-Jun-28 by Spacewatch at Kitt Peak
Reference:
20110517/Numbers.arc
Last Updated:
2011-05-20
[ show close-approach data ]
[
Ephemeris
|
Orbit Diagram
|
Orbital Elements
|
Mission Design
|
Physical Parameters
|
Discovery Circumstances
|
Close-Approach Data
]
2019-Dec-08 00:37 UT
(server date/time)
Site Manager:
Ryan S. Park
Webmaster
:
Alan B. Chamberlin